sat.trackr.live / text

‹ back to catalog

STARLINK-36000

NORAD 66807 · 2025-278S

PAYLOAD ACTIVE UNKNOWN

§ Identity

Operator
Country
US
Launch date
2025-12-01
Launch site
AFETR
Launch vehicle
Mass (kg)
RCS (m²)

Purposes: comms

External: N2YO · Heavens-Above · Gunter

§ Orbital elements

Epoch: 2026-05-25T00:22:10.521120Z

Period
94.27 min
Inclination
43.0004°
Eccentricity
0.0001148
Mean motion
15.27587298 rev/d
Perigee alt
482.2 km
Apogee alt
483.8 km
Semi-major
6,861.2 km
B*
9.3219e-4
RAAN
43.1905°
Arg perigee
279.2326°
Mean anomaly
80.8396°
Rev number
2,688

§ Raw data

STARLINK-360001 66807U 25278S   26145.01539955  .00025484  00000+0  93219-3 0  99952 66807  43.0004  43.1905 0001148 279.2326  80.8396 15.27587298 26889

JSON: /api/v1/satellites/66807 · /tle

For live sub-satellite position, see the globe view (requires WebGL).

§ Visibility from observer

Set your observer location to see the next 7 days of passes ≥ 10°. The values pass through the URL so the page stays shareable.

No JS? Fill the form by hand. The geolocation button needs JavaScript.